Temp_Advection
nan nan nan nan nan nan nan nan nan nan nan nan nan nan nan nan nan nan nan nan nan nan nan nan nan nan nan nan nan nan nan nan nan nan nan nan nan nan nan nan nan nan nan nan nan nan nan nan nan nan nan nan nan nan nan nan nan nan nan nan nan nan nan nan nan nan nan nan nan
nan -0 -0 0 0 0 0 -0 0 0 0 -0 -0 -0 -0 0 -0 -0 -0 -0 0 0 0 0 0 0 0 0 0 0 0 0 0 0 0 0 0 0 -0 -0 -0 -0 1 1 1 0 0 0 -0 -0 -0 -0 0 0 -0 -0 0 0 0 0 0 0 0 0 -0 -0 0 0 nan
nan -1 -0 0 0 0 0 0 0 0 0 -0 -0 -0 -0 -0 -0 -0 -0 0 0 0 0 0 0 -0 0 0 0 0 0 0 0 0 0 0 0 0 0 0 -0 -0 0 1 0 -0 0 0 0 -0 -0 -0 0 0 -0 -0 -0 0 1 1 1 1 0 -0 -0 -0 0 -0 nan
nan -0 -0 -0 0 -0 -0 -0 0 0 0 -0 -0 -0 -0 -0 -0 -0 -0 0 0 0 0 -0 -0 0 0 -0 0 0 0 0 0 0 0 1 0 0 0 0 0 0 0 0 -0 -0 0 0 0 0 -0 -0 -0 0 0 0 -0 -0 0 0 1 1 0 0 1 1 1 1 nan
nan -1 -1 -1 -0 -0 -0 -0 0 0 0 -0 -0 -0 -0 -0 -0 -0 0 0 0 0 -0 -0 -0 0 0 0 -0 -0 -0 -0 -0 0 0 0 0 0 0 0 0 0 -0 -0 -0 -0 0 0 0 0 0 -0 0 0 0 0 -0 0 0 0 0 1 1 0 0 0 1 1 nan
nan -1 -1 -1 -1 -0 -0 0 1 0 -0 -0 -0 -0 -0 -0 0 0 0 0 0 -0 -0 -0 0 -0 0 0 0 -0 -0 -1 -0 -0 -0 0 0 0 0 0 0 0 0 -0 -1 -0 0 0 0 0 0 0 0 0 0 0 0 0 0 0 -0 -0 -0 -0 -0 -0 -0 0 nan
nan -1 -1 -1 -1 -1 -0 0 0 0 -0 -0 -0 -0 -0 -0 0 0 0 0 0 -0 -0 -0 -0 0 0 -0 -0 -0 -0 0 0 -0 -0 0 0 0 0 0 -0 0 0 -0 -0 -0 0 0 0 0 -0 0 1 1 0 0 0 0 1 1 0 -0 -1 -1 -1 -0 -0 -0 nan
nan -1 -1 -1 -1 -1 -0 -0 0 0 -0 -0 -0 -0 -0 -0 0 0 0 0 0 -0 -0 -0 -0 0 0 -0 -0 -0 0 0 0 -0 -0 -0 -0 -0 -0 -0 -0 -0 -0 -0 -0 -0 -0 0 0 0 0 -0 0 1 1 0 0 0 0 1 1 0 0 -0 -1 -1 -0 -0 nan
nan -1 -1 -1 -1 -0 -0 -0 -0 0 0 -0 -0 -0 -0 -0 -0 0 0 0 0 -0 -0 -0 0 0 0 0 -0 -0 0 0 0 0 -0 -0 -0 -0 -0 -0 -0 -0 -0 -0 -0 -0 -0 -0 0 0 0 0 -0 1 1 1 0 0 -0 0 0 1 0 0 0 -0 -0 -0 nan
nan -1 -1 -1 -0 -0 -0 -0 -0 0 -0 -0 -0 -0 -0 -0 -0 0 0 0 0 0 -0 -0 0 0 0 0 0 0 0 0 -0 0 0 0 0 0 -0 -0 -0 -0 -1 -1 -1 -1 -1 -0 -0 -0 -0 -0 -0 0 1 1 1 0 0 -0 0 0 1 1 1 0 0 -0 nan
nan -1 -1 -1 -0 -0 -0 -0 -0 -0 -0 -0 -0 -0 -0 -0 -0 0 0 0 0 0 -0 -0 -0 0 0 0 -0 0 0 0 0 0 0 -0 -0 0 0 0 -0 -0 -0 -0 -1 -1 -1 -1 -1 -0 -0 -1 -1 -0 -0 0 1 1 1 0 -0 -0 0 0 1 1 1 0 nan
nan -1 -1 -0 -0 -0 0 0 0 -0 -1 -0 -0 -0 -0 -0 -0 -0 -0 -0 0 0 -0 -0 0 0 0 0 -0 -0 -0 0 0 0 0 0 -0 0 0 0 0 0 -0 -0 -0 -1 -1 -1 -1 -1 -0 -0 -1 -1 -1 -1 -0 0 1 1 -0 -0 -0 -0 0 0 1 1 nan
nan -0 -0 -0 -0 0 1 0 -0 -1 -1 -0 -0 -0 -0 -0 -0 -0 -0 -0 0 0 0 -0 0 0 0 -0 0 -0 -0 -0 0 0 0 0 0 0 0 0 0 0 0 0 0 -0 -0 -1 -1 -1 -1 -1 -1 -1 -1 -1 -1 -1 -0 0 0 -0 -0 -0 -0 -0 0 0 nan
nan -0 -0 -0 0 0 0 0 -0 -1 -1 -0 -0 0 0 0 -0 -0 -0 -0 0 0 0 0 0 1 0 0 0 0 -0 -0 -0 -0 -0 -0 0 0 0 0 0 0 1 0 0 0 0 -0 -0 -1 -1 -1 -1 -1 -1 -1 -1 -1 -1 -1 -0 -0 -0 -0 -0 -0 -0 -0 nan
nan -0 -0 -0 0 0 0 -0 -1 -1 -1 -0 -0 0 0 0 -0 0 0 -0 -0 0 0 0 0 0 0 0 0 0 -0 -0 -0 -0 -0 -0 -0 0 0 0 0 0 0 1 1 1 0 0 0 -0 -0 -0 -1 -1 -1 -0 -0 -1 -1 -1 -1 -0 -0 -0 -0 -0 -0 -0 nan
nan -0 -0 -0 -0 0 0 -0 -0 -1 -0 -0 -0 -0 0 0 0 0 0 -0 -0 -0 0 0 0 0 0 0 0 0 -0 -0 -0 -0 -0 -0 -0 0 0 0 0 0 0 0 1 1 0 0 0 0 0 -0 -0 -0 -0 -0 -0 -0 -0 -0 -0 -0 -0 -0 -0 0 0 0 nan
nan -0 -0 -0 -0 -0 -0 -0 -0 -0 -0 -0 -0 -0 0 0 0 0 0 -0 -0 -0 0 0 0 0 0 0 0 0 0 -0 -0 -0 -0 -0 -0 -0 -0 -0 -0 0 0 0 0 0 0 0 0 0 0 0 0 0 -0 -0 -0 -0 -0 -0 -0 0 0 0 1 1 1 1 nan
nan -0 -0 -0 -0 -0 -0 -0 -0 -0 -0 -0 -0 0 1 1 1 0 0 0 0 0 0 0 0 0 0 0 0 0 0 -0 -0 -0 -0 -0 -0 -0 -0 -0 -0 -0 0 0 0 0 0 0 0 0 0 0 0 0 0 0 -0 -0 -0 -0 0 0 0 1 1 1 1 1 nan
nan -0 -0 -0 -0 -0 -0 -0 -0 -0 -0 -0 0 1 1 1 1 1 1 0 0 0 0 1 0 0 0 0 0 -0 -0 -0 -0 -0 -0 -0 -0 -0 -0 -0 0 0 0 0 0 0 0 0 0 0 0 0 0 0 0 0 0 0 0 0 0 0 0 0 0 1 1 1 nan
nan -0 0 0 0 0 -0 -0 -0 -0 -0 -0 0 0 1 1 1 1 1 1 1 1 1 1 1 1 1 0 0 0 0 0 -0 -0 -0 -0 -0 -0 -0 0 0 0 0 0 0 0 0 0 0 0 0 0 0 0 0 0 0 0 0 0 0 0 0 0 0 0 0 0 nan
nan 0 0 0 0 0 0 -0 -0 -0 -0 -0 0 0 0 1 1 1 1 1 1 1 1 1 1 1 1 1 1 0 0 0 0 -0 -0 -0 -0 -0 -0 0 0 0 1 1 1 0 0 0 0 0 0 0 0 0 0 0 0 0 0 0 0 0 0 0 1 1 1 0 nan
nan 0 0 0 0 0 -0 -0 -0 -0 -0 -0 -0 -0 0 0 0 1 1 1 0 0 0 0 0 0 0 1 1 0 0 0 0 0 -0 -0 -0 -0 -0 0 0 1 1 1 1 1 0 0 0 0 0 0 0 0 0 0 0 0 0 0 0 0 0 1 1 1 1 1 nan
nan 0 0 0 0 -0 -0 -0 -0 -0 -0 -0 0 -0 -0 -0 0 0 0 0 0 0 0 -0 -0 0 0 0 0 0 0 0 0 0 0 -0 -0 -0 0 0 1 1 1 1 1 0 0 0 0 0 0 0 0 0 0 0 0 0 0 0 0 0 0 0 1 1 1 1 nan
nan 0 0 0 0 0 0 0 0 0 0 0 0 0 -0 -0 -0 -0 -0 -0 0 0 -0 -0 -0 -0 -0 -0 0 0 0 0 0 0 0 0 -0 -0 0 0 0 1 1 1 1 0 0 0 0 0 0 0 0 0 0 0 0 0 0 0 0 0 0 1 1 1 1 1 nan
nan 0 0 0 0 0 0 0 0 0 0 0 0 0 0 -0 -0 -0 -0 -0 -0 -0 -0 -0 -0 -0 -0 -0 -0 -0 0 0 0 0 0 0 0 0 0 0 0 0 0 0 0 0 0 0 0 0 0 0 0 0 0 0 0 0 1 1 1 1 1 1 1 1 1 1 nan
nan 0 0 0 0 0 0 0 0 0 1 0 1 1 0 0 0 0 0 -0 -0 -0 -0 -0 -0 -0 -0 -0 -0 -0 -0 -0 -0 -0 -0 -0 0 0 0 0 0 0 0 0 0 0 0 0 0 0 0 0 0 0 0 0 1 1 1 1 1 1 1 1 1 1 1 1 nan
nan 0 0 0 0 0 0 0 0 0 0 0 0 1 1 0 0 0 0 0 0 0 0 0 0 0 0 0 0 0 0 -0 -0 -0 -0 -0 -0 0 0 0 0 0 -0 -0 0 0 0 0 0 0 0 0 0 0 0 1 1 1 1 1 1 1 1 1 1 1 1 1 nan
nan 0 0 0 0 0 0 0 0 0 0 0 0 0 0 0 0 0 0 0 0 0 0 0 1 1 1 1 1 1 1 1 0 0 0 0 0 -0 0 0 0 0 0 0 0 1 1 1 1 1 0 0 0 1 1 1 1 1 1 1 1 1 1 1 1 1 1 1 nan
nan 0 0 0 0 0 0 0 0 0 0 0 0 0 0 0 0 0 0 0 0 1 1 1 1 1 1 1 1 1 1 1 1 1 1 1 1 1 1 1 1 1 1 1 1 1 1 1 1 1 1 0 0 1 1 1 1 1 1 1 1 1 1 1 1 1 1 1 nan
nan -0 0 0 0 0 0 0 0 0 0 0 0 0 0 0 0 0 0 0 0 0 0 1 1 1 1 1 1 1 1 1 1 1 1 1 1 1 1 1 1 2 2 2 2 2 2 1 1 1 1 1 1 1 1 1 1 1 1 1 1 1 1 1 1 1 1 1 nan
nan 0 0 0 -0 0 0 0 0 0 0 0 0 0 0 0 0 0 0 0 0 0 0 0 0 0 0 0 0 0 0 1 1 1 1 1 1 1 1 1 2 2 2 1 1 1 1 1 1 1 1 1 1 1 1 1 1 1 1 1 1 1 1 1 1 1 1 1 nan
nan 0 0 0 -0 -0 0 0 0 0 0 0 0 0 0 0 0 0 0 0 0 0 0 0 0 0 0 0 0 0 0 1 1 1 1 1 1 1 1 1 1 1 1 1 1 1 1 1 1 1 1 1 1 1 1 1 1 1 1 1 1 1 1 1 1 1 1 1 nan
nan 0 0 0 0 0 0 0 0 0 0 0 0 0 0 0 -0 -0 0 0 0 0 0 0 0 0 1 1 1 1 1 1 1 1 1 1 1 1 1 1 1 1 1 1 1 1 1 1 1 1 1 1 1 1 1 1 1 1 1 1 1 1 1 1 1 1 1 1 nan
nan 0 0 0 0 0 -0 0 0 0 0 0 0 0 0 0 0 0 0 0 0 0 0 0 1 1 1 1 1 1 1 1 1 1 1 1 1 1 1 1 1 1 1 1 1 1 1 1 1 1 1 1 1 1 1 1 1 1 1 1 1 1 1 1 1 1 1 1 nan
nan 0 0 0 0 -0 -0 0 0 0 0 0 0 0 0 0 0 0 0 0 0 0 0 0 1 1 1 1 1 1 1 1 1 1 1 1 1 1 1 1 1 1 1 1 1 1 1 1 1 1 1 1 1 1 1 1 1 1 1 1 1 1 1 1 1 1 1 1 nan
nan 0 0 0 0 0 0 0 0 0 0 0 0 0 0 0 0 0 0 0 0 0 0 0 0 0 0 0 0 1 1 1 1 1 1 1 1 1 1 1 1 1 1 1 1 1 1 1 1 1 1 1 1 1 1 1 1 1 1 1 1 1 1 1 1 1 1 1 nan
nan 0 0 0 0 0 0 0 0 0 0 0 0 0 0 0 0 0 0 0 0 1 1 0 0 0 1 1 1 1 1 1 1 1 1 1 1 1 1 1 1 1 1 1 1 1 1 1 1 1 1 1 1 1 1 1 1 1 1 1 1 1 1 1 1 1 1 1 nan
nan 0 0 0 0 0 0 0 0 0 0 0 0 0 0 0 0 1 1 1 1 1 1 1 1 1 1 1 1 1 1 1 1 1 1 1 1 1 1 1 1 1 1 1 1 1 1 1 1 1 1 1 1 1 1 1 1 1 1 1 1 1 1 1 1 1 1 1 nan
nan 0 0 0 0 0 0 0 0 0 0 0 0 0 0 0 1 1 1 1 1 1 1 1 1 1 1 1 1 1 1 1 1 1 1 1 1 1 1 1 1 1 1 1 1 1 1 1 1 1 1 1 1 1 1 1 1 1 1 1 1 1 1 1 1 1 1 1 nan
nan 0 0 0 0 0 0 0 0 0 0 1 1 1 1 1 1 1 1 1 1 1 1 1 1 1 1 1 1 1 1 1 1 1 1 1 1 1 1 1 1 1 1 1 1 1 1 1 1 1 1 1 1 1 1 1 1 1 1 1 1 1 1 1 1 1 1 1 nan
nan nan nan nan nan nan nan nan nan nan nan nan nan nan nan nan nan nan nan nan nan nan nan nan nan nan nan nan nan nan nan nan nan nan nan nan nan nan nan nan nan nan nan nan nan nan nan nan nan nan nan nan nan nan nan nan nan nan nan nan nan nan nan nan nan nan nan nan nan
Wind_Speed
19 20 21 22 22 21 21 20 19 19 19 17 15 13 12 11 10 10 10 9 9 9 9 9 8 9 10 11 11 10 9 8 7 6 5 4 3 3 5 7 10 12 13 13 10 4 3 7 7 6 6 6 6 6 5 3 4 14 23 28 28 27 26 25 25 25 25 27 31
19 21 22 22 23 23 22 21 21 21 21 19 17 15 14 13 11 11 11 10 8 8 9 9 8 9 11 12 12 10 9 8 7 6 6 4 3 2 2 4 6 8 10 10 8 3 3 7 6 5 5 5 6 6 7 7 7 4 13 23 27 29 28 27 26 26 26 27 29
19 21 22 23 23 23 23 22 22 22 22 21 19 17 16 15 13 12 13 12 8 6 7 9 9 10 11 13 13 11 10 8 7 6 6 5 4 3 2 1 2 4 6 6 4 1 6 9 8 5 5 5 6 6 6 8 11 11 8 9 16 22 26 28 27 27 27 29 31
19 20 21 22 23 24 24 24 23 23 23 22 20 18 17 16 15 14 14 14 10 6 5 8 10 11 13 15 15 13 11 9 8 6 6 5 5 5 4 3 2 1 1 1 2 5 9 11 9 6 4 5 7 7 7 8 11 12 13 12 9 9 15 20 20 20 22 26 29
19 20 21 22 23 24 25 25 24 24 24 23 22 20 18 17 16 15 14 15 13 8 5 6 8 12 15 16 16 15 13 11 9 7 6 5 5 5 5 4 4 4 3 3 4 6 9 11 9 6 4 5 7 8 7 7 9 10 11 13 14 13 12 14 13 11 10 13 17
19 20 21 23 24 25 26 26 26 25 25 24 23 21 19 18 17 16 14 14 14 11 7 4 5 9 14 18 18 17 15 12 10 9 7 6 5 5 5 4 4 5 5 5 5 5 8 9 9 9 8 7 6 7 7 6 7 9 10 11 12 13 14 14 13 11 10 9 9
19 20 21 22 23 25 26 26 26 26 26 26 24 23 21 19 18 16 14 14 15 14 10 5 3 5 10 17 18 18 16 14 12 11 9 8 7 7 6 5 4 5 6 6 6 6 6 7 8 9 9 9 9 8 7 6 5 6 9 10 11 12 13 12 11 9 8 7 7
18 20 21 22 23 24 25 26 27 27 27 26 25 24 22 20 19 17 15 14 14 14 13 9 4 2 4 11 16 17 16 15 14 13 12 11 10 8 7 6 5 5 5 6 6 6 7 6 6 7 9 10 11 10 7 5 4 3 5 9 11 12 13 13 11 9 8 6 7
16 18 20 21 22 23 24 25 26 27 27 27 26 24 23 21 20 19 16 14 14 14 14 12 7 3 2 5 11 14 15 17 17 15 14 13 12 10 9 8 7 6 6 6 6 6 7 7 7 6 7 9 12 12 10 7 4 2 2 4 8 10 11 12 12 11 9 7 8
14 15 17 18 20 21 22 23 25 26 26 26 26 25 24 23 22 20 18 17 15 14 13 13 10 5 2 2 7 11 14 16 16 16 15 14 13 11 10 10 9 9 8 8 8 9 9 9 8 8 7 7 9 11 12 10 7 4 1 0 4 8 10 11 12 12 11 8 8
12 13 14 15 17 19 20 21 23 24 25 26 26 25 25 24 23 22 21 19 17 15 13 13 12 9 4 2 4 7 10 12 13 14 14 14 13 11 10 10 10 10 9 9 10 10 11 11 11 11 10 9 8 9 10 11 9 7 5 3 2 4 7 9 11 12 12 11 9
10 11 12 13 14 16 18 19 20 22 24 25 26 26 25 24 23 23 22 22 20 17 15 14 14 12 8 4 5 6 7 8 10 11 11 11 11 11 11 10 10 10 9 9 9 10 11 11 12 13 12 12 11 10 9 9 9 8 7 7 5 4 5 7 9 10 12 12 11
8 9 10 11 13 14 14 16 18 21 23 24 25 26 25 24 23 23 23 24 23 20 17 15 15 15 12 8 6 7 9 9 7 7 7 7 8 10 11 11 10 10 10 9 9 9 10 10 11 12 12 13 14 14 13 12 11 10 9 9 8 6 6 6 8 9 10 11 12
8 8 9 10 11 11 12 13 16 19 22 23 24 25 25 24 23 23 24 24 24 23 20 17 16 16 15 12 9 8 9 11 10 9 6 5 4 7 11 12 12 11 11 11 10 9 9 9 9 9 10 12 13 15 16 16 16 15 13 12 11 9 8 7 7 9 10 10 11
9 8 9 9 10 10 10 11 13 17 20 22 24 24 24 24 23 23 23 24 25 25 23 20 17 16 16 15 12 10 9 10 11 11 9 7 4 7 12 14 13 13 12 12 11 11 10 9 9 9 9 9 11 12 14 17 18 19 18 16 14 13 12 10 9 10 10 11 12
9 8 8 9 9 9 9 9 11 14 17 20 22 24 24 24 23 23 23 23 24 25 25 24 20 17 15 16 14 11 9 9 10 10 10 8 6 9 13 14 14 13 13 12 12 12 11 11 10 10 9 9 9 10 11 13 15 18 19 19 18 17 16 14 13 12 12 13 13
8 8 8 9 9 9 8 8 8 10 14 18 21 22 23 23 23 23 22 22 23 24 26 26 24 20 16 15 13 11 10 10 10 10 10 9 8 10 13 14 13 13 12 13 13 13 13 12 12 11 11 10 10 10 10 10 12 14 15 17 18 18 18 17 16 15 15 15 14
6 6 7 8 9 9 8 8 7 7 10 14 18 21 22 22 22 22 22 22 22 23 25 26 27 25 21 17 14 12 10 10 10 11 11 10 10 11 13 14 13 12 12 13 13 13 13 13 13 12 12 11 11 11 10 10 11 11 12 13 14 16 16 17 17 16 16 15 15
4 5 7 8 8 8 8 8 7 5 6 9 14 18 20 21 21 21 21 21 21 22 23 25 26 27 26 23 19 15 12 10 11 11 12 12 11 12 13 14 14 13 13 13 13 13 13 13 13 13 13 13 12 12 12 11 11 11 11 11 11 12 13 14 14 15 15 14 14
4 5 6 7 8 8 8 9 8 6 5 5 8 13 17 19 20 20 20 19 19 20 20 22 24 26 27 26 24 20 15 12 11 11 12 12 12 13 13 14 14 14 14 13 13 13 13 13 13 13 13 13 13 13 12 12 12 11 11 11 11 11 11 12 13 13 13 14 14
5 6 7 8 9 9 9 9 9 9 8 6 6 9 13 17 18 19 19 19 19 18 18 19 20 22 24 26 26 24 21 17 14 12 12 13 13 14 14 15 16 16 16 15 14 13 13 12 12 12 12 12 12 12 12 12 12 11 11 11 11 11 11 12 12 13 13 14 14
5 7 7 8 9 9 9 9 10 10 10 9 8 8 10 14 17 18 19 19 19 18 17 17 18 19 21 23 24 25 24 22 19 16 14 14 14 15 16 16 17 17 17 16 15 14 13 12 12 12 12 12 12 12 12 11 11 11 11 11 10 11 11 11 12 13 13 14 15
4 6 7 8 8 9 9 9 9 9 10 10 10 10 11 13 15 17 18 19 19 18 18 18 18 18 19 20 22 23 23 23 22 20 17 16 16 16 16 17 17 17 17 17 16 15 14 13 12 12 12 12 12 12 12 12 11 11 11 11 11 11 11 11 12 13 13 14 15
4 5 6 7 7 7 7 7 7 7 8 9 10 11 12 13 15 16 17 18 18 18 18 19 19 19 20 20 20 21 22 22 22 22 20 19 18 17 17 16 16 16 16 16 15 15 14 14 14 14 13 13 13 13 13 13 13 12 12 12 12 12 12 12 12 13 13 14 14
5 7 7 7 7 7 7 7 7 7 8 9 10 12 13 14 14 15 16 17 18 18 19 20 20 20 21 21 21 21 21 22 22 22 22 21 20 19 18 16 15 14 14 14 15 14 15 15 15 15 15 14 14 14 14 14 14 14 13 13 13 13 13 13 13 13 13 13 13
7 9 9 9 9 10 9 9 9 9 9 10 11 12 13 14 14 14 15 16 17 18 19 20 20 21 22 22 22 22 22 22 23 23 23 23 22 21 20 19 17 16 15 15 15 15 15 15 16 16 16 16 15 15 15 15 15 15 14 14 14 14 14 14 13 13 14 14 13
8 10 10 11 11 11 11 11 11 11 11 11 11 12 12 13 13 14 15 15 17 18 19 20 20 21 22 22 23 24 24 24 25 25 25 25 24 24 23 22 21 20 19 19 18 17 17 16 17 17 17 17 17 16 16 16 16 15 15 15 14 14 14 14 14 14 14 14 13
7 9 10 10 11 11 11 11 10 10 10 11 11 11 12 12 12 13 13 14 15 16 17 18 19 20 21 22 23 24 25 26 27 27 27 27 26 26 25 25 24 24 24 23 22 21 20 19 18 18 18 18 18 17 17 17 16 16 16 15 15 15 15 15 15 14 14 14 14
5 6 7 8 8 9 9 9 8 8 9 9 9 10 10 10 11 11 12 13 13 14 15 16 17 17 18 19 21 22 23 24 25 26 27 27 27 26 26 26 26 26 26 26 24 23 22 21 20 20 19 19 18 18 18 17 17 16 16 16 16 16 15 15 15 14 14 14 14
5 3 2 3 3 5 6 6 6 6 6 6 7 7 7 7 7 8 9 10 11 12 13 14 14 15 15 16 17 18 19 20 21 22 22 22 23 24 25 25 25 25 25 25 24 23 22 22 21 20 20 19 19 19 18 18 17 16 16 16 16 16 15 15 15 14 14 13 13
7 6 4 3 2 2 3 4 5 5 5 4 4 4 4 3 3 4 5 6 8 9 11 11 12 13 13 14 14 15 15 16 17 17 18 18 19 20 21 22 22 22 22 22 22 21 21 21 21 20 20 19 19 18 18 17 17 16 16 15 15 15 15 15 14 14 13 13 12
9 8 7 5 4 3 4 4 5 5 5 4 4 3 3 3 2 2 3 4 5 7 8 9 10 11 12 12 13 13 13 14 14 14 15 15 15 17 18 18 19 19 19 19 19 20 20 20 20 20 19 19 19 18 18 17 17 16 15 15 15 14 14 13 13 13 12 12 11
8 7 6 6 5 5 5 5 5 5 5 4 4 4 3 3 3 3 3 4 5 6 7 8 8 9 10 11 11 12 12 13 13 13 13 13 13 14 15 16 17 17 17 18 18 18 19 19 19 19 19 19 18 18 17 17 16 16 15 15 14 13 13 12 12 11 11 11 10
8 7 6 6 6 6 6 6 6 5 5 4 4 3 3 3 2 3 4 5 5 6 7 7 8 9 9 10 10 10 11 11 12 12 12 12 12 13 13 14 15 16 16 17 17 17 17 17 18 18 18 18 18 17 17 16 16 15 15 14 14 13 12 12 11 11 10 10 10
8 7 7 7 7 7 7 7 7 6 5 5 4 4 3 3 3 4 5 6 6 7 8 8 8 8 9 9 9 9 10 10 11 11 11 11 12 12 13 14 14 15 16 16 16 16 16 16 16 16 16 16 16 16 16 15 15 14 14 13 13 13 12 12 11 11 11 10 10
9 9 9 9 9 9 9 8 8 7 6 6 5 5 5 5 5 6 6 7 8 8 9 9 9 9 9 9 9 9 10 10 10 11 11 11 11 12 12 13 14 14 14 15 14 14 14 14 14 14 14 14 15 14 14 14 14 14 13 13 12 12 12 11 11 11 11 10 10
10 10 10 10 10 10 10 9 9 8 8 7 7 7 8 8 8 9 9 9 10 10 10 10 10 10 10 10 10 10 10 10 10 11 11 11 11 12 12 13 13 14 14 13 13 13 13 13 13 13 13 13 13 13 13 13 13 13 13 13 12 12 12 11 11 11 11 10 10
11 11 11 12 12 11 11 10 10 10 9 9 9 9 10 10 11 11 12 12 12 12 12 11 11 11 11 11 12 12 12 12 11 11 12 12 12 12 12 13 13 14 14 13 13 13 13 13 13 12 12 12 12 13 13 13 13 13 13 13 13 12 12 12 11 11 11 11 11
11 12 12 12 12 12 12 11 11 11 11 10 10 11 11 12 12 13 13 13 13 13 13 12 12 12 12 13 13 13 13 13 12 12 12 12 12 12 12 13 13 14 14 14 14 14 13 13 13 13 12 12 12 13 13 13 13 13 13 13 13 13 12 12 12 12 12 11 11
11 12 12 12 12 12 12 12 13 12 12 12 12 13 13 13 13 13 13 13 13 12 12 12 12 12 12 12 12 12 12 12 12 12 12 12 12 12 12 12 13 14 14 14 14 14 14 14 14 13 13 12 13 13 13 13 14 14 14 14 13 13 13 13 13 12 12 12 11
11 11 11 12 12 12 12 13 13 13 13 13 13 13 14 14 13 13 13 13 12 12 12 12 12 11 11 11 10 10 10 10 10 10 10 11 11 12 12 12 13 13 14 14 14 14 14 14 14 14 13 13 13 13 13 13 13 14 14 14 13 13 13 13 13 13 12 11 11
Wind_Direction
229 227 227 227 228 228 226 222 218 216 215 211 203 196 197 205 213 218 218 217 216 211 206 199 199 199 201 201 201 200 198 198 198 198 199 205 227 252 268 276 281 284 286 287 285 295 44 61 65 66 64 56 47 45 54 85 201 217 219 219 220 220 219 219 218 216 214 211 208
233 229 227 226 227 227 226 224 221 219 217 213 205 198 196 201 210 217 220 220 220 210 198 190 191 194 194 192 191 187 182 178 175 175 174 173 178 198 237 257 265 272 280 288 291 284 106 87 74 52 40 47 55 56 58 68 73 149 201 206 209 210 212 212 210 209 207 206 206
237 231 228 226 226 227 227 225 223 221 219 216 209 201 197 198 204 213 221 225 229 213 189 182 186 188 188 184 180 174 168 163 159 157 155 149 142 141 152 200 248 259 271 289 305 125 120 106 93 67 37 41 57 67 70 68 67 74 101 161 189 200 204 205 204 202 200 201 203
240 235 231 228 226 226 226 226 224 223 221 218 212 205 200 199 202 210 221 228 232 223 186 179 186 188 184 178 174 168 164 161 158 156 149 138 127 119 111 93 75 72 281 334 56 114 122 114 108 91 58 46 50 62 76 77 66 63 68 79 104 156 186 193 194 193 194 196 200
242 238 234 230 227 226 226 225 224 223 222 219 214 208 203 201 202 209 220 230 232 228 202 180 187 188 182 175 170 167 166 167 166 164 158 143 128 118 107 94 79 71 67 69 85 116 127 124 124 119 101 70 52 50 62 89 85 75 66 65 72 86 112 133 136 140 154 174 187
242 239 236 232 229 227 226 225 225 224 222 220 216 212 207 203 202 208 219 232 232 228 218 189 181 183 181 176 170 171 175 178 173 167 164 158 143 131 125 116 100 83 72 66 79 113 137 143 140 135 125 107 80 57 51 70 98 103 95 83 81 85 94 102 104 103 104 115 136
241 239 236 234 230 228 226 226 225 224 223 221 218 214 211 207 205 209 219 231 232 229 225 216 185 177 183 184 184 187 188 180 173 169 168 164 157 151 148 143 128 104 86 72 72 94 125 147 155 149 136 123 108 88 64 52 73 105 115 116 112 111 112 113 114 114 113 118 124
242 238 236 234 231 229 228 226 226 225 224 223 220 216 213 210 210 213 220 230 233 230 227 225 211 178 184 196 202 203 193 173 171 171 170 167 163 160 157 156 149 131 112 98 89 95 107 118 138 152 148 136 124 114 100 77 54 67 105 123 130 133 132 130 130 131 137 148 158
247 241 236 234 232 230 229 227 227 226 226 224 222 218 215 213 213 215 221 229 233 231 227 225 220 199 182 214 209 201 186 168 168 169 169 167 165 163 160 156 156 151 143 137 133 129 126 124 124 130 139 143 136 130 124 116 99 62 64 114 139 146 146 144 142 141 144 157 179
250 243 237 233 231 230 229 228 227 227 226 226 224 220 217 216 216 217 221 227 231 231 226 221 216 205 191 234 204 193 181 170 165 165 166 166 165 164 163 161 161 159 156 154 157 161 162 161 153 138 128 132 138 136 133 131 129 126 120 114 148 153 158 160 158 155 152 156 182
249 242 235 231 229 228 227 227 227 227 226 226 224 222 219 217 217 218 221 225 230 231 226 217 211 204 198 231 222 206 191 179 168 164 163 163 164 166 168 168 166 164 163 161 163 167 172 176 175 167 152 138 135 135 135 136 138 144 153 172 194 175 168 172 174 171 166 165 178
250 242 234 228 225 224 223 224 225 225 225 224 224 223 220 218 218 218 220 224 229 231 226 215 208 203 200 206 242 248 235 205 179 166 160 159 163 169 174 174 171 167 165 165 166 168 172 177 180 178 171 159 149 143 142 144 149 156 164 174 195 213 205 190 186 183 179 176 178
251 244 235 227 222 219 219 221 222 222 222 222 223 223 221 219 218 218 220 224 227 229 225 215 207 202 200 197 217 245 255 248 222 193 175 167 165 171 177 179 176 171 168 167 167 168 171 175 179 182 181 176 168 162 158 159 162 167 174 182 188 200 213 211 203 195 189 186 182
248 242 233 224 215 213 215 220 222 221 220 220 221 222 221 220 218 218 220 222 225 226 224 217 207 201 199 198 203 225 248 258 258 251 237 221 194 179 179 181 179 176 172 169 168 169 172 176 179 182 184 185 183 178 174 172 171 172 175 181 188 192 197 210 214 210 203 197 193
245 238 225 214 206 205 212 220 223 221 219 218 218 220 220 219 218 218 219 221 223 223 222 218 210 203 201 202 204 214 233 250 261 264 262 254 236 193 183 182 181 179 175 171 171 172 175 179 182 183 184 187 190 191 188 185 182 180 179 180 185 191 196 203 213 216 214 209 205
243 231 214 204 198 199 208 220 226 224 219 216 216 217 218 218 218 218 218 220 221 222 222 220 216 209 203 202 203 208 222 240 252 258 260 256 233 197 187 187 187 185 181 177 175 175 179 183 185 185 185 186 190 194 196 195 193 190 188 187 188 191 197 203 209 215 217 215 212
238 220 201 195 193 196 204 216 226 227 221 216 215 215 216 217 217 217 218 219 220 221 222 222 220 217 211 203 199 201 213 231 245 251 252 248 228 204 194 194 196 195 190 185 181 182 185 187 186 185 185 186 189 192 196 198 199 198 197 195 194 195 198 203 207 211 214 215 215
225 205 192 191 191 194 200 208 218 225 223 217 213 213 213 214 215 215 216 217 218 220 221 222 222 222 220 215 208 203 207 222 239 247 247 241 228 213 203 200 202 202 200 195 193 193 194 193 189 187 186 186 188 191 194 196 199 200 200 200 199 200 201 204 207 209 211 212 213
215 200 192 192 193 195 198 202 206 212 218 218 213 211 210 211 211 211 212 214 216 218 220 222 223 224 224 223 219 213 209 216 232 244 248 242 231 219 211 206 205 206 206 206 205 204 202 199 194 190 188 187 188 190 192 194 196 197 197 198 199 200 202 204 207 209 210 211 212
220 210 200 196 194 195 198 202 203 201 201 212 215 212 208 206 206 205 205 206 210 215 218 221 223 224 225 225 224 221 216 216 227 241 248 244 235 225 216 211 209 209 209 211 212 212 210 205 200 195 191 190 190 191 192 193 194 194 194 194 195 196 199 201 203 206 208 210 212
224 217 208 199 195 196 200 204 206 204 201 200 208 210 206 202 200 198 197 199 203 208 214 219 222 224 224 225 225 223 221 219 222 232 241 242 237 229 221 217 215 213 212 211 212 214 215 212 207 202 197 195 194 195 195 195 195 194 195 195 195 195 196 197 199 200 202 205 208
220 212 205 198 195 197 202 207 210 211 210 206 201 200 199 197 195 194 195 196 197 200 206 213 219 222 224 224 224 223 222 221 222 224 230 235 236 232 226 221 219 217 215 213 211 213 215 217 215 210 206 202 201 201 200 200 198 197 197 198 198 198 197 197 196 197 199 201 203
201 192 189 187 190 195 203 210 214 216 216 212 202 194 191 192 192 192 193 193 193 195 199 205 211 216 219 221 222 222 222 222 222 222 223 227 232 233 229 223 220 219 218 216 213 211 213 216 218 217 214 210 207 205 204 204 203 203 202 202 203 203 203 202 199 197 197 198 200
156 154 155 162 171 180 189 198 203 208 209 207 198 191 188 190 191 192 191 191 192 194 198 202 204 208 210 213 216 218 220 220 220 220 220 221 225 229 231 227 222 220 219 218 215 213 212 215 218 220 219 216 212 209 207 206 206 205 205 205 205 206 207 208 205 201 198 198 200
120 124 129 137 143 149 155 162 168 175 182 187 186 185 186 190 192 193 193 193 194 196 198 201 202 203 205 207 209 212 215 217 217 217 217 217 219 223 227 230 230 228 225 223 220 217 214 215 217 219 221 220 218 214 211 209 208 207 207 207 206 206 207 209 210 208 204 201 201
112 116 121 127 130 133 136 140 145 151 157 163 170 175 180 186 190 193 194 195 196 198 199 201 202 203 203 204 206 208 211 213 214 214 214 215 216 218 221 225 230 233 234 233 229 224 220 217 217 218 220 221 221 219 217 214 212 210 208 207 207 207 206 206 208 210 209 206 203
111 114 119 124 127 129 133 136 138 142 145 150 155 162 169 176 182 186 190 193 195 197 199 201 202 203 203 203 203 205 207 209 210 211 211 213 214 216 218 220 223 227 230 232 231 228 223 220 218 217 218 219 220 221 219 217 215 212 210 208 206 206 205 205 205 208 211 210 206
116 112 115 120 124 129 133 136 140 141 143 144 146 150 156 162 168 174 180 186 190 194 196 198 201 202 202 202 202 203 204 206 207 207 208 209 211 213 214 216 218 221 222 224 223 222 220 218 217 216 215 216 217 218 218 218 217 214 211 208 206 205 205 205 207 208 210 211 208
137 119 113 115 121 127 134 140 144 146 146 145 144 144 146 150 155 162 170 177 182 186 190 193 197 199 200 200 201 201 202 203 204 205 205 206 207 209 211 212 214 215 216 216 215 213 212 212 212 211 211 211 212 213 214 214 214 213 211 208 206 205 204 205 206 208 209 209 208
197 180 144 120 120 129 140 147 152 154 155 153 150 147 145 146 149 155 163 170 176 181 185 188 191 193 195 197 198 199 200 202 203 204 205 205 205 205 207 208 209 210 210 209 207 205 204 204 205 205 205 205 206 207 208 209 209 208 207 206 205 203 203 202 202 203 204 204 203
224 234 245 258 251 195 172 169 168 170 173 176 174 172 169 166 164 163 167 171 175 179 182 185 187 189 191 193 195 197 198 200 200 201 202 203 203 202 203 204 205 205 205 203 201 199 199 199 199 198 198 198 199 200 201 201 201 201 201 201 200 199 198 197 196 196 195 196 196
225 237 247 256 254 232 206 193 189 190 195 201 206 214 223 232 235 219 200 189 185 184 184 185 186 188 189 192 193 195 197 198 198 198 199 200 200 200 199 200 201 201 200 199 198 197 196 195 194 193 192 192 193 194 194 195 196 197 197 197 196 195 194 193 191 189 188 187 186
218 228 235 240 234 219 203 195 194 197 204 211 221 233 244 252 251 239 220 206 198 191 187 186 186 187 189 190 191 193 194 196 197 197 197 197 198 198 199 198 198 197 196 196 196 195 194 193 192 190 189 189 189 190 191 192 194 195 196 196 195 194 193 192 190 188 186 183 181
204 210 215 215 210 202 194 190 192 199 207 214 223 232 239 241 234 217 202 195 192 189 186 184 184 183 183 184 185 186 189 191 192 193 193 194 196 198 199 199 197 196 195 194 193 193 192 192 191 189 188 187 187 187 188 189 191 193 194 194 194 193 193 193 193 191 189 186 183
189 193 195 196 194 191 189 187 190 195 202 209 215 218 215 209 200 188 181 179 182 182 181 180 180 179 177 176 177 179 180 181 183 184 185 186 190 193 196 197 196 195 193 191 190 189 189 190 190 189 188 187 186 185 185 185 186 187 189 189 190 190 191 191 192 192 191 189 186
178 181 183 185 185 185 185 185 186 188 192 198 203 203 199 193 186 180 177 177 179 178 177 177 178 178 176 174 174 175 174 174 175 175 176 178 182 186 190 192 192 192 190 188 186 186 186 187 187 188 188 186 185 183 182 180 180 181 183 184 184 185 186 188 190 191 191 190 189
173 176 179 181 183 183 183 183 182 182 184 188 192 192 189 186 180 178 178 179 178 177 178 179 180 180 179 179 177 177 177 176 175 173 172 173 176 180 184 187 187 186 184 182 182 182 182 183 184 185 185 184 183 181 180 179 179 179 180 180 180 181 183 185 187 189 190 191 190
174 176 178 180 182 182 182 181 179 179 180 182 182 182 181 179 176 174 176 177 176 175 177 179 180 181 182 183 182 181 181 179 177 175 172 171 173 177 181 183 182 180 179 177 178 178 179 180 180 181 182 181 181 181 180 180 181 181 181 180 180 181 183 184 186 188 191 191 193
178 178 179 181 181 181 180 178 176 175 176 177 177 176 176 174 172 172 174 174 173 173 173 174 175 177 180 182 182 181 180 178 177 175 174 172 173 176 180 181 180 179 177 176 177 178 179 179 178 178 180 181 182 183 183 183 183 182 182 182 181 181 183 184 187 189 191 193 195
183 182 181 181 181 180 178 175 172 172 172 173 173 172 172 171 170 171 172 171 170 170 170 170 171 173 175 177 178 179 178 178 177 176 175 173 173 175 179 181 181 179 177 177 178 179 179 178 177 177 177 180 182 183 184 184 184 183 182 182 182 182 182 184 187 189 192 195 198
188 185 182 180 179 178 175 172 170 169 169 170 169 168 169 170 170 170 169 167 166 166 166 166 166 168 170 172 175 176 177 178 178 177 176 176 175 177 179 182 182 180 178 178 178 179 179 178 176 175 176 178 180 182 183 184 184 183 182 182 183 183 184 185 187 190 193 196 200
Height
1445 1445 1445 1446 1447 1447 1447 1447 1448 1448 1449 1450 1450 1451 1451 1452 1452 1452 1452 1452 1452 1452 1451 1451 1451 1451 1452 1452 1452 1452 1452 1452 1452 1451 1451 1451 1450 1449 1449 1449 1450 1451 1452 1453 1454 1455 1456 1456 1455 1455 1455 1456 1456 1455 1454 1453 1453 1453 1453 1454 1455 1455 1456 1457 1458 1459 1460 1461 1462
1444 1444 1444 1444 1445 1445 1446 1446 1447 1447 1448 1448 1449 1450 1450 1451 1451 1451 1451 1451 1451 1451 1451 1450 1451 1451 1451 1451 1452 1452 1452 1452 1451 1451 1451 1450 1450 1449 1449 1448 1448 1449 1450 1452 1453 1455 1456 1456 1456 1456 1456 1457 1457 1456 1455 1454 1453 1452 1452 1453 1453 1454 1455 1456 1457 1458 1459 1460 1461
1442 1442 1442 1443 1443 1444 1444 1445 1445 1446 1447 1447 1448 1448 1449 1449 1450 1450 1451 1451 1450 1450 1450 1450 1450 1450 1451 1451 1451 1452 1452 1451 1451 1451 1450 1450 1449 1449 1448 1448 1448 1447 1448 1450 1453 1455 1456 1457 1457 1458 1458 1458 1457 1457 1456 1454 1453 1452 1452 1452 1453 1453 1454 1455 1456 1457 1457 1458 1459
1441 1441 1441 1441 1442 1442 1442 1443 1444 1445 1446 1446 1447 1447 1448 1448 1449 1449 1450 1450 1450 1450 1449 1449 1450 1450 1450 1451 1451 1451 1451 1451 1451 1451 1450 1450 1449 1448 1448 1448 1447 1447 1447 1449 1452 1455 1457 1457 1458 1459 1459 1459 1457 1457 1456 1454 1453 1453 1452 1452 1453 1453 1454 1454 1456 1457 1457 1457 1458
1440 1440 1440 1440 1440 1440 1441 1442 1442 1443 1444 1445 1446 1447 1447 1447 1448 1448 1449 1449 1449 1449 1449 1449 1449 1450 1450 1450 1450 1451 1451 1451 1451 1451 1450 1450 1449 1448 1448 1447 1447 1447 1446 1447 1452 1455 1457 1458 1459 1460 1460 1459 1457 1457 1456 1455 1454 1454 1454 1453 1453 1453 1454 1456 1457 1458 1459 1459 1459
1438 1438 1438 1438 1438 1439 1439 1440 1441 1442 1443 1444 1445 1445 1446 1447 1447 1448 1448 1448 1448 1449 1449 1449 1448 1449 1450 1450 1450 1450 1451 1451 1451 1451 1451 1450 1450 1449 1448 1448 1448 1447 1445 1446 1450 1455 1457 1458 1459 1459 1459 1458 1457 1457 1456 1456 1455 1455 1455 1455 1454 1455 1456 1457 1459 1460 1460 1460 1461
1436 1437 1437 1437 1437 1437 1438 1438 1439 1440 1441 1442 1443 1444 1445 1446 1446 1447 1447 1447 1448 1448 1448 1448 1448 1448 1448 1449 1449 1449 1450 1451 1451 1451 1451 1451 1450 1450 1449 1448 1448 1447 1445 1446 1449 1453 1456 1457 1458 1458 1457 1457 1457 1457 1457 1456 1457 1456 1456 1456 1456 1456 1457 1458 1459 1460 1461 1462 1462
1434 1435 1435 1435 1435 1436 1436 1437 1438 1439 1440 1441 1442 1443 1444 1445 1445 1446 1447 1447 1447 1447 1447 1448 1447 1447 1447 1448 1448 1449 1449 1450 1450 1450 1450 1450 1451 1450 1450 1450 1449 1447 1446 1446 1448 1451 1453 1455 1456 1457 1457 1456 1456 1456 1457 1457 1457 1457 1457 1457 1457 1457 1458 1459 1460 1461 1462 1463 1463
1433 1433 1433 1434 1434 1434 1435 1436 1436 1437 1438 1439 1441 1442 1443 1444 1444 1445 1446 1446 1446 1446 1447 1447 1447 1446 1446 1447 1447 1448 1449 1449 1450 1450 1450 1450 1450 1451 1450 1450 1449 1448 1448 1447 1448 1450 1452 1453 1454 1455 1456 1456 1455 1456 1457 1457 1458 1458 1458 1458 1458 1459 1459 1460 1461 1462 1462 1463 1464
1432 1432 1432 1432 1433 1433 1433 1434 1435 1436 1437 1438 1439 1441 1442 1442 1443 1444 1444 1445 1445 1446 1446 1447 1447 1446 1446 1447 1447 1447 1448 1449 1449 1449 1449 1450 1450 1450 1450 1449 1449 1449 1449 1449 1450 1451 1452 1452 1453 1454 1454 1454 1455 1456 1456 1457 1458 1459 1459 1459 1459 1459 1460 1461 1462 1462 1463 1464 1465
1431 1431 1431 1431 1431 1432 1432 1433 1434 1435 1436 1437 1438 1439 1440 1441 1442 1442 1443 1444 1444 1445 1445 1446 1446 1446 1446 1446 1447 1447 1448 1448 1449 1449 1449 1449 1450 1450 1450 1450 1449 1449 1449 1449 1450 1451 1452 1452 1453 1453 1453 1453 1455 1456 1456 1457 1458 1459 1460 1460 1460 1460 1461 1462 1462 1463 1463 1464 1465
1430 1430 1430 1430 1430 1430 1431 1432 1432 1433 1434 1435 1437 1437 1439 1439 1440 1441 1442 1442 1443 1444 1445 1445 1446 1445 1445 1446 1446 1447 1447 1448 1448 1448 1448 1448 1449 1450 1450 1450 1449 1449 1449 1449 1450 1451 1452 1452 1453 1453 1454 1453 1454 1455 1457 1458 1458 1459 1460 1461 1461 1462 1462 1462 1463 1463 1464 1464 1465
1429 1429 1429 1429 1429 1429 1430 1430 1431 1432 1432 1434 1435 1436 1437 1438 1439 1440 1441 1441 1442 1443 1444 1445 1445 1445 1445 1445 1446 1446 1447 1447 1448 1448 1448 1448 1448 1449 1449 1449 1450 1450 1449 1449 1450 1450 1451 1452 1452 1453 1453 1454 1455 1455 1457 1458 1459 1460 1461 1462 1462 1462 1462 1463 1463 1464 1464 1465 1465
1428 1428 1428 1428 1428 1428 1429 1429 1430 1430 1431 1432 1433 1435 1436 1437 1438 1439 1439 1440 1441 1442 1443 1444 1444 1445 1445 1445 1445 1445 1446 1446 1447 1447 1447 1447 1447 1448 1449 1449 1450 1450 1450 1450 1450 1450 1451 1451 1452 1452 1453 1453 1454 1456 1457 1458 1459 1460 1461 1462 1462 1462 1462 1462 1463 1463 1464 1465 1466
1427 1427 1427 1427 1427 1428 1428 1428 1429 1429 1430 1431 1432 1433 1434 1436 1437 1437 1438 1439 1440 1441 1442 1442 1443 1444 1445 1445 1445 1445 1445 1445 1446 1446 1446 1447 1447 1447 1448 1449 1450 1450 1450 1450 1450 1450 1451 1451 1452 1452 1452 1453 1454 1455 1457 1457 1458 1459 1460 1461 1462 1462 1462 1462 1462 1463 1464 1465 1465
1427 1427 1427 1427 1427 1427 1427 1428 1428 1428 1429 1429 1431 1432 1433 1434 1435 1436 1437 1438 1438 1439 1441 1442 1442 1443 1444 1445 1445 1445 1445 1445 1445 1446 1446 1446 1447 1447 1448 1449 1449 1450 1450 1450 1450 1451 1451 1452 1452 1452 1452 1453 1454 1455 1456 1457 1458 1458 1459 1459 1460 1461 1462 1462 1462 1462 1463 1464 1465
1426 1426 1426 1426 1426 1427 1427 1428 1428 1428 1428 1428 1429 1430 1432 1433 1434 1435 1436 1437 1437 1438 1439 1440 1442 1442 1443 1444 1444 1445 1445 1445 1445 1446 1446 1446 1447 1447 1448 1449 1449 1450 1450 1450 1451 1451 1452 1452 1452 1452 1453 1453 1454 1454 1455 1456 1457 1458 1458 1458 1459 1459 1460 1461 1461 1462 1462 1463 1464
1425 1425 1425 1425 1426 1426 1427 1427 1427 1427 1427 1428 1428 1429 1430 1432 1433 1434 1435 1436 1437 1437 1438 1439 1440 1442 1442 1443 1444 1445 1445 1445 1445 1446 1446 1446 1447 1447 1448 1448 1449 1449 1450 1451 1451 1452 1452 1452 1452 1452 1453 1453 1454 1454 1455 1456 1456 1457 1457 1457 1458 1458 1459 1460 1460 1461 1462 1462 1463
1424 1424 1425 1425 1425 1426 1426 1427 1427 1427 1427 1427 1428 1428 1429 1430 1432 1432 1434 1435 1436 1436 1437 1438 1439 1440 1441 1442 1443 1444 1445 1445 1445 1445 1446 1446 1447 1447 1448 1448 1449 1449 1450 1450 1451 1452 1452 1452 1452 1452 1453 1453 1453 1454 1455 1455 1456 1456 1456 1457 1457 1457 1458 1458 1459 1460 1461 1461 1462
1424 1424 1424 1424 1425 1425 1426 1426 1427 1427 1427 1427 1428 1428 1429 1430 1431 1432 1433 1434 1435 1436 1437 1437 1438 1439 1440 1441 1442 1444 1445 1445 1445 1445 1446 1446 1446 1447 1447 1448 1448 1449 1450 1450 1451 1451 1452 1452 1452 1452 1452 1453 1453 1454 1454 1455 1455 1455 1456 1456 1456 1456 1457 1457 1458 1459 1460 1460 1461
1424 1424 1424 1424 1425 1425 1425 1426 1426 1427 1427 1428 1428 1428 1428 1429 1430 1431 1432 1433 1434 1435 1436 1437 1437 1438 1439 1440 1441 1442 1444 1445 1445 1446 1446 1446 1446 1447 1447 1447 1448 1449 1449 1450 1450 1451 1451 1452 1452 1452 1452 1453 1453 1453 1454 1454 1455 1455 1455 1455 1456 1456 1456 1457 1457 1458 1459 1460 1461
1424 1423 1423 1424 1424 1425 1425 1425 1426 1426 1427 1427 1428 1428 1428 1429 1430 1430 1431 1432 1433 1434 1435 1436 1437 1437 1438 1439 1440 1441 1442 1444 1445 1446 1446 1446 1446 1446 1447 1447 1447 1448 1448 1449 1449 1450 1451 1451 1452 1452 1452 1452 1453 1453 1454 1454 1454 1455 1455 1455 1456 1456 1456 1457 1457 1458 1458 1459 1460
1423 1423 1423 1423 1424 1424 1425 1425 1426 1426 1426 1427 1427 1427 1428 1428 1429 1430 1431 1432 1432 1433 1435 1436 1436 1437 1437 1438 1439 1440 1441 1442 1444 1445 1446 1446 1446 1446 1446 1447 1447 1447 1448 1448 1449 1449 1450 1451 1451 1452 1452 1452 1453 1453 1454 1454 1454 1455 1455 1455 1456 1456 1456 1457 1457 1457 1458 1459 1459
1424 1423 1423 1423 1424 1424 1425 1425 1425 1426 1426 1426 1427 1427 1428 1428 1429 1430 1430 1431 1432 1433 1434 1435 1436 1437 1437 1438 1438 1439 1440 1441 1442 1443 1445 1446 1446 1446 1446 1446 1446 1447 1447 1448 1448 1449 1449 1450 1451 1452 1452 1452 1453 1453 1453 1454 1454 1455 1455 1455 1456 1456 1456 1457 1457 1457 1458 1458 1459
1424 1423 1423 1424 1424 1424 1425 1425 1425 1426 1426 1426 1426 1427 1427 1428 1429 1429 1430 1431 1432 1433 1433 1434 1435 1436 1437 1437 1438 1439 1439 1440 1441 1442 1444 1445 1445 1446 1446 1446 1446 1446 1447 1447 1448 1448 1449 1449 1450 1451 1452 1452 1452 1453 1453 1454 1454 1454 1455 1455 1455 1456 1456 1456 1457 1457 1457 1458 1458
1425 1424 1424 1424 1424 1425 1425 1426 1426 1426 1426 1426 1427 1427 1427 1428 1429 1429 1430 1431 1432 1432 1433 1434 1435 1435 1436 1437 1437 1438 1439 1440 1441 1442 1442 1443 1444 1445 1446 1446 1447 1447 1447 1447 1447 1448 1448 1449 1450 1451 1451 1452 1452 1453 1453 1453 1454 1454 1454 1455 1455 1455 1456 1456 1456 1457 1457 1457 1458
1425 1425 1425 1425 1425 1426 1426 1426 1427 1427 1427 1427 1427 1427 1428 1428 1429 1429 1430 1431 1432 1432 1433 1434 1434 1435 1436 1436 1437 1437 1438 1439 1440 1441 1441 1442 1443 1444 1444 1445 1446 1447 1447 1447 1447 1448 1448 1449 1449 1450 1451 1451 1452 1452 1453 1453 1454 1454 1454 1454 1455 1455 1455 1455 1456 1456 1456 1457 1457
1427 1426 1426 1426 1426 1427 1427 1427 1427 1427 1427 1427 1428 1428 1428 1429 1429 1430 1430 1431 1432 1432 1433 1433 1434 1435 1435 1436 1436 1437 1437 1438 1439 1439 1440 1441 1442 1442 1443 1443 1444 1445 1446 1446 1447 1447 1447 1448 1448 1449 1450 1451 1451 1452 1452 1453 1453 1454 1454 1454 1454 1455 1455 1455 1455 1455 1456 1456 1457
1427 1427 1427 1427 1427 1427 1427 1428 1428 1428 1428 1428 1428 1429 1429 1429 1430 1430 1430 1431 1432 1432 1433 1433 1434 1434 1435 1435 1436 1436 1437 1437 1438 1438 1439 1440 1440 1441 1442 1442 1443 1443 1444 1444 1445 1446 1446 1447 1447 1448 1449 1450 1450 1451 1452 1452 1453 1453 1454 1454 1454 1454 1454 1455 1455 1455 1455 1455 1456
1427 1427 1427 1427 1428 1428 1428 1428 1428 1428 1428 1429 1429 1429 1429 1430 1430 1430 1431 1431 1432 1432 1432 1433 1433 1434 1434 1435 1435 1436 1436 1437 1437 1438 1438 1439 1439 1440 1440 1441 1442 1442 1442 1443 1443 1444 1445 1446 1446 1447 1448 1449 1449 1450 1451 1452 1452 1453 1453 1453 1454 1454 1454 1454 1454 1455 1455 1455 1455
1427 1427 1427 1428 1428 1428 1428 1429 1429 1429 1429 1429 1429 1429 1430 1430 1430 1431 1431 1431 1432 1432 1432 1433 1433 1434 1434 1435 1435 1435 1436 1436 1437 1437 1438 1439 1439 1439 1440 1440 1441 1441 1442 1442 1443 1443 1444 1445 1445 1446 1447 1448 1448 1449 1450 1451 1451 1452 1452 1453 1453 1453 1454 1454 1454 1454 1454 1455 1455
1427 1427 1428 1428 1428 1428 1428 1429 1429 1429 1429 1429 1429 1430 1430 1430 1430 1431 1431 1431 1431 1432 1432 1433 1433 1434 1434 1434 1435 1435 1436 1436 1437 1437 1437 1438 1438 1439 1439 1440 1440 1441 1441 1442 1442 1443 1443 1444 1445 1445 1446 1447 1447 1448 1449 1450 1450 1451 1452 1452 1452 1453 1453 1453 1454 1454 1454 1454 1454
1427 1427 1427 1427 1428 1428 1428 1428 1429 1429 1429 1429 1429 1430 1430 1430 1430 1431 1431 1431 1431 1432 1432 1432 1433 1433 1434 1434 1435 1435 1436 1436 1437 1437 1437 1438 1438 1438 1439 1439 1440 1440 1441 1442 1442 1442 1443 1444 1444 1445 1445 1446 1447 1447 1448 1449 1449 1450 1450 1451 1451 1452 1452 1453 1453 1453 1453 1454 1454
1427 1427 1427 1427 1428 1428 1428 1428 1429 1429 1429 1429 1429 1429 1430 1430 1430 1431 1431 1431 1431 1432 1432 1432 1433 1433 1434 1434 1435 1435 1436 1436 1437 1437 1437 1437 1438 1438 1439 1439 1440 1440 1441 1441 1442 1442 1443 1443 1444 1444 1445 1445 1446 1447 1447 1447 1448 1449 1449 1450 1450 1451 1451 1452 1452 1452 1453 1453 1453
1427 1427 1427 1427 1428 1428 1428 1428 1428 1429 1429 1429 1429 1429 1430 1430 1430 1431 1431 1431 1431 1432 1432 1432 1433 1433 1434 1434 1435 1435 1436 1436 1436 1437 1437 1437 1438 1438 1438 1439 1439 1440 1440 1441 1441 1442 1442 1443 1443 1444 1444 1445 1445 1446 1446 1447 1447 1447 1448 1449 1449 1450 1450 1451 1451 1452 1452 1452 1453
1427 1427 1427 1427 1428 1428 1428 1428 1428 1429 1429 1429 1429 1430 1430 1430 1430 1431 1431 1431 1432 1432 1432 1432 1433 1433 1434 1434 1434 1435 1435 1436 1436 1437 1437 1437 1437 1438 1438 1438 1439 1439 1440 1440 1441 1441 1442 1442 1443 1443 1444 1444 1445 1445 1445 1446 1446 1447 1447 1448 1448 1449 1449 1450 1450 1451 1451 1452 1452
1427 1427 1427 1427 1428 1428 1428 1428 1429 1429 1429 1429 1429 1430 1430 1430 1430 1431 1431 1431 1432 1432 1432 1432 1433 1433 1433 1434 1434 1435 1435 1435 1436 1436 1437 1437 1437 1437 1438 1438 1438 1439 1439 1440 1440 1441 1441 1442 1442 1443 1443 1444 1444 1445 1445 1445 1446 1446 1447 1447 1447 1448 1448 1449 1449 1450 1450 1451 1451
1427 1427 1427 1427 1427 1428 1428 1428 1429 1429 1429 1429 1430 1430 1430 1430 1430 1431 1431 1432 1432 1432 1432 1432 1433 1433 1434 1434 1434 1434 1435 1435 1436 1436 1436 1437 1437 1437 1437 1438 1438 1438 1439 1439 1440 1440 1441 1442 1442 1442 1443 1443 1444 1444 1445 1445 1445 1446 1446 1446 1447 1447 1448 1448 1449 1449 1450 1450 1451
1427 1427 1427 1427 1427 1428 1428 1428 1428 1429 1429 1429 1430 1430 1430 1430 1431 1431 1431 1432 1432 1432 1432 1433 1433 1433 1434 1434 1434 1434 1435 1435 1435 1436 1436 1436 1437 1437 1437 1437 1438 1438 1438 1439 1439 1440 1441 1441 1442 1442 1442 1443 1443 1444 1444 1444 1445 1445 1445 1446 1446 1447 1447 1447 1448 1449 1449 1450 1450
1427 1427 1427 1427 1427 1428 1428 1428 1428 1429 1429 1429 1430 1430 1430 1430 1431 1431 1432 1432 1432 1432 1433 1433 1433 1433 1434 1434 1434 1435 1435 1435 1435 1436 1436 1436 1436 1437 1437 1437 1438 1438 1438 1438 1439 1440 1440 1440 1441 1441 1442 1442 1443 1443 1444 1444 1444 1445 1445 1445 1446 1446 1447 1447 1448 1448 1449 1449 1450
1427 1427 1427 1427 1428 1428 1428 1428 1428 1429 1429 1429 1430 1430 1430 1431 1431 1431 1432 1432 1432 1433 1433 1433 1433 1434 1434 1434 1435 1435 1435 1435 1435 1436 1436 1436 1436 1437 1437 1437 1437 1438 1438 1438 1439 1439 1440 1440 1441 1441 1442 1442 1442 1443 1443 1444 1444 1444 1445 1445 1446 1446 1447 1447 1447 1448 1448 1449 1449